This is the latest recevied weather packets stored in our database for station/object EA3HRE-10. If no packets are shown the sender has not sent any weather packets the latest 10 day(s).
| Time | Temp. | Humidity | Pressure | Rain* | Wind** | Luminosity | Snow |
|---|---|---|---|---|---|---|---|
| 1787859003 | 26.67° C | 50% | 1012.6 hPa | - | - | - | - |
| 1787858134 | 26.67° C | 50% | 1011.9 hPa | - | - | - | - |
| 1787858102 | 26.67° C | 50% | 1011.9 hPa | - | - | - | - |
| 1787857202 | 26.11° C | 51% | 1011.6 hPa | - | - | - | - |
| 1787856302 | 26.11° C | 49% | 1011.5 hPa | - | - | - | - |
| 1787855410 | 26.11° C | 47% | 1011.4 hPa | - | - | - | - |
| 1787855402 | 26.11° C | 47% | 1011.4 hPa | - | - | - | - |
| 1787854502 | 26.11° C | 48% | 1011.2 hPa | - | - | - | - |
| 1787853602 | 26.67° C | 46% | 1011.6 hPa | - | - | - | - |
| 1787852702 | 26.67° C | 48% | 1011.2 hPa | - | - | - | - |
| 1787851802 | 26.67° C | 47% | 1011.4 hPa | - | - | - | - |
| 1787850902 | 27.22° C | 46% | 1011.5 hPa | - | - | - | - |
| 1787850002 | 27.22° C | 45% | 1011.5 hPa | - | - | - | - |
| 1787849102 | 27.22° C | 47% | 1011.6 hPa | - | - | - | - |
| 1787848201 | 27.78° C | 50% | 1011.5 hPa | - | - | - | - |
| 1787847301 | 27.22° C | 53% | 1011.5 hPa | - | - | - | - |
| 1787846401 | 27.78° C | 52% | 1011.4 hPa | - | - | - | - |
| 1787845501 | 27.78° C | 51% | 1011.3 hPa | - | - | - | - |
| 1787844601 | 28.33° C | 52% | 1011.4 hPa | - | - | - | - |
| 1787843701 | 27.78° C | 52% | 1011.5 hPa | - | - | - | - |
| 1787842801 | 28.33° C | 51% | 1011.7 hPa | - | - | - | - |
| 1787841901 | 27.78° C | 51% | 1011.7 hPa | - | - | - | - |
| 1787841001 | 28.33° C | 52% | 1011.8 hPa | - | - | - | - |
| 1787840101 | 27.78° C | 53% | 1011.8 hPa | - | - | - | - |
| 1787839201 | 27.78° C | 53% | 1011.6 hPa | - | - | - | - |
* Rain since midnight (hover to see other rain measurements)
** Current wind speed in m/s (hover to see current wind gust speed)